Flag for U.S.A. Weather past 2 weeks in Aurora, Colorado, U.S.A.

Now
57 °F

Scattered clouds.


Feels Like: 56 °F
Forecast: 37 / 64 °F
Wind: 7 mph from Southwest

Location: Buckley Air Force Base


UV Index: 5 (Moderate)

Visibility: 70 mi


Pressure: 29.85 "Hg

Humidity: 29%

Dew point: 25 °F

Location of AuroraLocation

Historic Weather in Aurora

°F

Aurora temperature yesterday

Maximum temperature yesterday: 72 °F (at 12:55 PM)
Minimum temperature yesterday: 37 °F (at 11:55 PM)
Average temperature yesterday: 57 °F

Past Weeks' High & Low Weather Summary

 TemperatureHumidityPressure
High77 °F (Apr 18, 2:55 PM)100% (Apr 13, 11:55 AM)30.42 "Hg (Apr 13, 11:55 AM)
Low14 °F (Apr 14, 5:55 AM)11% (Apr 11, 4:55 PM)29.39 "Hg (Apr 23, 3:55 AM)
Average51 °F47%29.86 "Hg
* Reported Apr 9 1:55 PM — Apr 24 1:55 PM, Aurora, Weather by CustomWeather, © 2014

Note: Actual official high and low records may vary slightly from our data, if they occured in-between our weather recording intervals... More about our weather records

Advertising

Historic Weather Conditions — Data for Previous 24 hours

 ConditionsComfort  
Time TempWeatherWind HumidityBarometerVisibility
1:55 PM
Apr 24
57 °FScattered clouds.7 mph29%29.85 "Hg70 mi
12:55 PM55 °FScattered clouds.5 mph24%29.88 "Hg70 mi
11:55 AM52 °FScattered clouds.9 mph30%29.93 "Hg10 mi
10:55 AM50 °FScattered clouds.6 mph32%29.96 "Hg70 mi
9:55 AM46 °FPassing clouds.9 mph40%30.03 "Hg70 mi
8:55 AM43 °FSunny.3 mph42%29.99 "Hg70 mi
7:55 AM34 °FSunny.6 mph65%30.02 "Hg70 mi
6:55 AM34 °FPassing clouds.5 mph65%29.99 "Hg70 mi
5:55 AM32 °FPassing clouds.6 mph64%29.95 "Hg10 mi
4:55 AM36 °FPassing clouds.3 mph56%29.90 "Hg10 mi
3:55 AM39 °FPassing clouds.6 mph75%29.87 "Hg10 mi
2:55 AM37 °FPartly cloudy.6 mph87%29.85 "Hg10 mi
1:55 AM39 °FPartly cloudy.6 mph87%29.82 "Hg10 mi
12:55 AM39 °FPartly cloudy.6 mph87%29.80 "Hg10 mi
11:55 PM
Apr 23
37 °FPassing clouds.8 mph93%29.81 "Hg10 mi
10:55 PM39 °FPartly cloudy.14 mph93%29.79 "Hg7 mi
9:55 PM41 °FLight rain. Mostly cloudy.No wind93%29.77 "Hg7 mi
8:55 PM41 °FLight rain. Mostly cloudy.13 mph93%29.74 "Hg7 mi
7:55 PM41 °FStrong thunderstorms. Fog.15 mph93%29.70 "Hg4 mi
6:55 PM48 °FThunderstorms. Mostly cloudy.26 mph66%29.62 "Hg10 mi
5:57 PM52 °FThunderstorms. Mostly cloudy.26 mph54%29.53 "Hg10 mi
4:59 PM64 °FScattered showers. Partly sunny.23 mph30%29.42 "Hg70 mi
3:55 PM66 °FScattered showers. Broken clouds.16 mph28%29.40 "Hg70 mi
2:55 PM70 °FScattered showers. Broken clouds.5 mph13%29.40 "Hg70 mi
Weather by CustomWeather, © 2014

See weather overview